Location: Tel Aviv
(32.0670°N, 34.7670°E)
Time: 12:27:09
(UTC+03:00)

Explorer 11/Cluster Stage 4 - Pass Details

Date: 14 September 2024
Orbit: 464 x 1208 km, 28.8° (Epoch: 05 October)

Event Time Altitude Azimuth Distance (km) Brightness Sun altitude
Rises 14:11:53 0° 267° (W) 4,088 10.6 53.4°
Reaches altitude 10° 14:16:15 10° 246° (WSW) 3,058 10.3 52.7°
Maximum altitude 14:20:17 15° 214° (SW) 2,590 10.2 52.1°
Drops below altitude 10° 14:24:05 10° 182° (S) 2,839 10.0 51.6°
Sets 14:27:55 0° 160° (SSE) 3,639 10.2 51.0°
